This is the latest recevied weather packets stored in our database for station/object EA5FOG-11. If no packets are shown the sender has not sent any weather packets the latest 10 day(s).
| Time | Temp. | Humidity | Pressure | Rain* | Wind** | Luminosity | Snow |
|---|---|---|---|---|---|---|---|
| 1787895772 | 21.11° C | 42% | 960.7 hPa | - | - | - | - |
| 1787894871 | 21.11° C | 41% | 960.2 hPa | - | - | - | - |
| 1787893970 | 21.11° C | 41% | 959.9 hPa | - | - | - | - |
| 1787893070 | 21.11° C | 40% | 960 hPa | - | - | - | - |
| 1787892169 | 21.11° C | 40% | 960 hPa | - | - | - | - |
| 1787891268 | 21.11° C | 40% | 960.1 hPa | - | - | - | - |
| 1787890367 | 20.56° C | 39% | 959.8 hPa | - | - | - | - |
| 1787889466 | 20.56° C | 39% | 959.2 hPa | - | - | - | - |
| 1787888565 | 20.56° C | 39% | 959.1 hPa | - | - | - | - |
| 1787887665 | 21.11° C | 38% | 959.1 hPa | - | - | - | - |
| 1787886764 | 21.11° C | 38% | 959.4 hPa | - | - | - | - |
| 1787885863 | 21.67° C | 37% | 959.5 hPa | - | - | - | - |
| 1787884962 | 21.67° C | 37% | 959.4 hPa | - | - | - | - |
| 1787884061 | 22.22° C | 37% | 959.3 hPa | - | - | - | - |
| 1787883161 | 22.22° C | 37% | 959.1 hPa | - | - | - | - |
| 1787882260 | 21.67° C | 37% | 959.2 hPa | - | - | - | - |
| 1787881359 | 22.22° C | 37% | 958.9 hPa | - | - | - | - |
| 1787879580 | 22.22° C | 37% | 958.9 hPa | - | - | - | - |
| 1787878679 | 22.78° C | 37% | 959.2 hPa | - | - | - | - |
| 1787877778 | 22.78° C | 36% | 959.2 hPa | - | - | - | - |
| 1787876877 | 22.78° C | 36% | 959.4 hPa | - | - | - | - |
| 1787875976 | 22.78° C | 36% | 959.2 hPa | - | - | - | - |
| 1787875076 | 22.78° C | 36% | 959.4 hPa | - | - | - | - |
| 1787874175 | 23.33° C | 36% | 959.2 hPa | - | - | - | - |
| 1787873274 | 23.33° C | 36% | 959.3 hPa | - | - | - | - |
* Rain since midnight (hover to see other rain measurements)
** Current wind speed in m/s (hover to see current wind gust speed)